Notices

What's New in latest Release from April 7th, 2021:

- Updated Glossary, including Speed of Maximum Gust, and Total Hourly Precipitation

- Updated national and regional climate services offices contacts and prices information

- Addition of station inventory lists for 1981-2010, 1971-2000, and 1961-1990 Normals.

If you haven't already, please take our survey and provide feedback about our website: https://eccc.sondage-survey.ca/f/LanguageSelection.aspx?s=442ca660-fcf1-47c0-95a9-59707d6fd709

Hourly Data Report for November 28, 2019

CARBERRY CS
MANITOBA
Current Station Operator: ECCC - MSC

49°54'20.900" N
99°21'26.800" W
383.50 m
5010547
71170
WZE

Download Data

Hourly Data (November 2019)
Hourly Data Report for November 28, 2019
TIME
LST
Temp Definition
°C
Dew Point Definition
°C
Rel Hum Definition
%
Precip. Amount Definition
mm

Wind Dir Definition
10's deg

Wind Spd Definition
km/h
Visibility Definition
km
Stn Press Definition
kPa
Hmdx Definition


Wind Chill Definition


Weather Definition


00:00 -6.3 -9.6 77 0.0 7 6   98.79   -9 LegendNANA
01:00 -7.5 -10.2 81 0.0 5 7   98.77   -11 LegendNANA
02:00 -10.0 -12.0 85 0.0 6 11   98.72   -16 LegendNANA
03:00 -12.0 -12.6 95 0.0 6 8   98.78   -17 LegendNANA
04:00 -12.3 -13.5 91 0.0 6 4   98.81   -15 LegendNANA
05:00 -9.9 -11.6 87 0.0 6 8   98.79   -14 LegendNANA
06:00 -10.0 -12.2 84 0.0 6 7   98.78   -14 LegendNANA
07:00 -11.0 -12.3 90 0.0 8 6   98.87   -15 LegendNANA
08:00 -11.9 -13.2 90 0.0 7 6   98.85   -16 LegendNANA
09:00 -12.7 -14.1 89 0.0 5 7   98.85   -17 LegendNANA
10:00 -9.2 -12.1 79 0.2 9 8   98.84   -14 LegendNANA
11:00 -7.7 -10.8 78 0.0 7 14   98.79   -14 LegendNANA
12:00 -7.3 -10.9 75 0.0 8 16   98.71   -14 LegendNANA
13:00 -6.8 -11.2 70 0.0 8 22   98.56   -14 LegendNANA
14:00 -6.8 -10.7 74 0.0 8 18   98.57   -13 LegendNANA
15:00 -7.0 -10.4 76 0.0 7 21   98.46   -14 LegendNANA
16:00 -7.8 -10.8 79 0.0 9 21   98.50   -15 LegendNANA
17:00 -8.1 -10.4 83 0.0 9 16   98.52   -15 LegendNANA
18:00 -8.5 -10.5 85 0.0 7 17   98.48   -15 LegendNANA
19:00 -8.4 -10.3 86 0.0 8 16   98.41   -15 LegendNANA
20:00 -8.6 -10.2 89 0.0 7 17   98.36   -15 LegendNANA
21:00 -8.4 -10.0 88 0.0 8 19   98.34   -16 LegendNANA
22:00 -8.1 -9.7 89 0.0 8 17   98.30   -15 LegendNANA
23:00 -7.9 -9.5 89 0.0 8 20   98.26   -15 LegendNANA

Notes on Data Quality.

Legend

  • E = Estimated
  • M = Missing
  • NA = Not Available*
  • [empty] = Indicates an unobserved value
Date modified: